Location: Lazise
(45.5000°N, 10.7333°E)
Time: 01:16:20
(UTC+00:00)

Daily predictions for brighter satellites

Satellite Brightness Start Highest point End
(mag) Time Altitude Azimuth Time Altitude Azimuth Time Altitude Azimuth
ATLAS CENTAUR R/B 3.9 00:03:28 10° NNW 00:05:27 20° NE 00:08:36 10° E
Nadezhda 2 Rocket 4.4 00:04:33 45° S 00:06:35 86° E 00:12:44 10° N
GEOS 3 Rocket 3.5 00:07:38 39° SSE 00:09:40 84° SW 00:14:59 10° NW
Cosmos 1726 3.9 00:08:37 10° NW 00:10:54 21° WNW 00:10:54 21° WNW
Cosmos 2058 Rocket 3.1 00:08:30 10° N 00:12:56 74° E 00:13:46 56° SE
STARLINK-1235 4.4 00:10:41 10° NW 00:13:35 36° NNE 00:16:30 10° E
COSMOS 2455 2.8 00:11:40 45° SSW 00:13:39 86° ESE 00:19:43 10° NNE
Meteor 1-29 3.2 00:10:30 10° N 00:13:32 64° NNW 00:13:32 64° NNW
Cosmos 2228 3.2 00:11:15 10° NNW 00:15:24 53° W 00:15:32 53° WSW
SJ 16-02 4.0 00:13:29 10° NNE 00:16:28 17° NE 00:19:26 10° E
SL-14 R/B 3.2 00:18:39 67° ESE 00:18:52 69° E 00:22:43 10° NNE
Cosmos 1953 4.3 00:17:02 10° NW 00:19:26 18° W 00:19:26 18° W
IRAS Rocket 4.2 00:17:53 41° SSE 00:19:56 86° WSW 00:25:33 10° NNW
Cosmos 1340 Rocket 4.4 00:18:16 10° NW 00:21:08 23° W 00:21:08 23° W
Okean 1-7 Rocket 3.5 00:22:03 62° S 00:22:47 89° W 00:27:19 10° N
Cosmos 1174 3.5 00:23:33 67° N 00:23:33 67° N 00:26:51 10° NNE
Cosmos 921 Rocket 3.4 00:23:34 45° SE 00:24:11 50° ESE 00:28:21 10° NNE
Cosmos 1300 2.7 00:20:52 10° N 00:24:41 70° E 00:25:04 64° SE
BREEZE M DEB (TANK) 3.2 00:26:49 38° NE 00:26:49 38° NE 00:29:32 10° E
COSMOS 2487 3.8 00:25:07 10° NW 00:27:18 28° WNW 00:27:18 28° WNW
Meteor 2-16 Rocket 4.5 00:27:43 37° S 00:30:18 76° E 00:36:26 10° NNE
Cosmos 1626 Rocket 4.2 00:29:36 37° SE 00:30:43 46° E 00:34:52 10° NNE
SAR-Lupe-3 4.5 00:29:41 10° NNE 00:33:14 73° ESE 00:33:21 72° ESE
Cosmos 2219 4.2 00:28:01 10° NNW 00:33:26 44° ENE 00:38:47 10° SE
Cosmos 1626 2.0 00:34:31 71° W 00:34:39 72° W 00:38:22 10° N
STARLINK-60 3.2 00:36:27 66° NNE 00:36:27 66° NNE 00:39:21 10° NE
FALCON 9 R/B 3.5 00:38:25 33° SSW 00:41:16 44° SSE 01:00:22 10° ESE
Nadezhda 1 Rocket 4.0 00:36:05 10° N 00:42:17 78° E 00:45:52 27° SSE
MOZ.5/SAFIR/RUBIN 5/SL-8 3.7 00:44:16 39° SSE 00:45:59 87° ENE 00:50:38 10° NNW
UNK 4.0 00:44:01 29° SSE 00:46:17 66° ENE 00:50:52 10° N
Cosmos 220 Rocket 4.1 00:46:16 47° SSE 00:47:22 66° ESE 00:51:46 10° NNE
Cosmos 2297 Rocket 3.2 00:43:39 10° NNW 00:49:06 47° ENE 00:54:32 10° SE
SL-4 R/B 2.4 00:49:13 35° WSW 00:51:15 80° NNW 00:56:00 10° ENE
Cosmos 1812 Rocket 4.1 00:47:43 10° N 00:52:08 56° ENE 00:54:30 26° SSE
Cosmos 1437 2.8 00:52:48 64° NW 00:52:48 64° NW 00:55:32 10° N
CZ-4B R/B 4.2 00:47:40 10° NNE 00:52:39 48° E 00:55:16 26° SSE
ATLAS CENTAUR R/B 2.2 00:56:56 31° W 00:58:32 45° NW 01:02:32 10° NNE
SL-16 R/B 2.5 00:56:01 24° SSE 01:00:00 86° WSW 01:06:13 10° NNW
Cosmos 1777 Rocket 4.4 00:55:36 10° NNW 01:00:33 44° WSW 01:01:54 36° SW
Timation 2 Rocket 3.9 00:54:47 10° NNW 01:01:03 63° WSW 01:04:30 26° S
NOSS 3-4 (A) 4.3 00:57:31 18° WSW 01:01:43 42° NW 01:07:49 10° NNE
NOSS 3-4 (C) 4.3 00:57:37 18° WSW 01:01:48 43° NW 01:07:56 10° NNE
FALCON 9 DEB 3.2 01:02:08 57° SSE 01:02:12 58° SE 01:05:37 10° ENE
BREEZE-M R/B 2.8 01:01:07 43° SW 01:02:18 64° SSE 01:05:20 10° ENE
Cosmos 1602 Rocket 3.5 01:01:58 41° S 01:03:26 81° E 01:07:47 10° N
OE (NEXTSAT) 4.2 01:03:39 68° SSW 01:03:54 72° SSE 01:07:22 10° E
STARLINK-1352 4.5 01:04:09 27° SE 01:04:09 27° SE 01:07:05 10° ENE
STARLINK-29 2.8 01:04:34 74° W 01:04:48 83° NW 01:08:00 10° ENE
STARLINK-1368 4.4 01:06:14 28° SE 01:06:14 28° SE 01:09:17 10° ENE
Cosmos 1455 3.2 01:03:30 10° N 01:07:05 42° ENE 01:09:23 19° SE
STARLINK-1369 4.3 01:08:12 29° SE 01:08:13 29° SE 01:11:19 10° ENE
ATLAS 3B R/B 2.9 01:01:49 10° NW 01:08:20 49° WSW 01:12:43 22° S
BREEZE-M DEB (TANK) 3.7 01:09:30 20° ESE 01:09:30 20° ESE 01:10:31 10° E
STARLINK-1372 4.2 01:10:25 31° SE 01:10:33 31° SE 01:13:42 10° ENE
IRS-1D 4.3 01:06:42 10° NNE 01:11:53 49° E 01:15:16 20° SSE
CENTAUR R/B 4.0 01:05:09 10° NW 01:12:00 29° WSW 01:14:47 25° SW
STARLINK-1378 4.2 01:12:32 32° SE 01:12:45 32° SE 01:15:56 10° ENE
STARLINK-1329 4.2 01:12:59 32° SSE 01:13:13 32° SE 01:16:26 10° ENE
GP-B 3.8 01:09:00 10° NNE 01:13:21 51° E 01:16:10 20° SSE
BREEZE-M DEB (TANK) 2.1 01:12:39 32° WNW 01:13:25 44° NNW 01:15:39 10° ENE
STARLINK-1365 4.0 01:13:46 34° SSE 01:14:03 34° SE 01:17:17 10° ENE
Meteor 2-1 Rocket 4.1 01:08:58 10° NNW 01:14:30 84° W 01:18:03 23° S
STARLINK-1379 4.1 01:14:39 33° SSE 01:14:57 33° SE 01:18:10 10° ENE
STARLINK-1362 4.1 01:15:10 33° SSE 01:15:30 34° SE 01:18:44 10° ENE
Cosmos 1745 Rocket 4.1 01:12:45 30° SSW 01:15:53 63° W 01:22:00 10° N
Cosmos-2242 4.1 01:12:37 10° N 01:16:43 42° ENE 01:20:32 11° SSE
STARLINK-1373 4.0 01:17:22 34° SSE 01:17:45 35° SE 01:21:03 10° ENE
STARLINK-1205 4.4 01:15:33 10° NW 01:19:38 53° NNE 01:23:41 10° ESE
STARLINK-1390 3.9 01:19:27 35° SSE 01:19:55 37° SE 01:23:13 10° ENE
RESURS DK-1 3.1 01:19:17 29° WSW 01:20:50 42° WNW 01:24:49 10° NNE
Cosmos 2181 Rocket 4.4 01:17:01 10° N 01:23:25 65° E 01:29:48 10° SSE
STARLINK-1218 4.3 01:20:31 10° NW 01:24:37 56° NNE 01:28:41 10° ESE
Cosmos 1356 Rocket 3.9 01:20:47 10° NNW 01:24:42 42° W 01:25:48 34° SW
Cosmos 2227 Rocket 2.4 01:19:06 10° NNW 01:24:48 74° ENE 01:30:28 10° SSE
Cosmos 1763 Rocket 4.0 01:23:45 21° S 01:26:54 51° ESE 01:31:49 10° NNE
Cosmos 1697 Rocket 3.7 01:23:11 16° SSE 01:27:08 38° ESE 01:32:20 10° NE
CZ-2D R/B 2.2 01:22:13 10° N 01:27:27 66° WNW 01:30:15 27° SW
Cosmos 1703 3.9 01:26:47 22° SSE 01:29:03 52° E 01:32:54 10° NNE
STARLINK-1254 4.2 01:25:30 10° NW 01:29:37 59° NNE 01:33:43 10° ESE
ADEOS II 2.6 01:25:01 10° NNE 01:30:11 54° E 01:34:07 17° S
ATLAS 2AS CENTAUR R/B 4.1 01:23:34 10° W 01:30:55 38° NW 01:38:10 10° NNE
CZ-4C R/B 4.3 01:30:46 29° SW 01:31:44 33° W 01:35:40 10° NNW
STARLINK-1231 4.1 01:30:30 10° NW 01:34:38 63° NNE 01:38:44 10° ESE
STARLINK-1228 3.3 01:33:05 10° WNW 01:36:18 44° SW 01:39:29 10° SE
Resurs 1-4 Rocket 2.4 01:32:02 10° N 01:37:10 53° WNW 01:40:11 24° SW
STARLINK-1234 3.3 01:34:30 10° WNW 01:41:18 - SE 01:37:02 40° WSW
STARLINK-1212 2.8 01:35:49 10° WNW 01:38:53 59° SW 01:41:56 10° SE
USA 81 4.2 01:36:19 25° SSW 01:39:20 62° W 01:44:35 10° N
STARLINK-1105 2.8 01:36:17 10° WNW 01:39:21 58° SW 01:42:23 10° SE
STARLINK-1232 4.0 01:35:29 10° NW 01:39:37 67° NNE 01:43:44 10° ESE
STARLINK-1209 3.9 01:36:47 10° WNW 01:44:32 - SE 01:38:43 29° W
STARLINK-1247 2.8 01:37:12 10° WNW 01:40:16 57° SW 01:43:20 10° SE
STARLINK-1227 2.8 01:37:40 10° WNW 01:40:43 56° SW 01:43:45 10° SE
STARLINK-52 3.6 01:39:41 24° W 01:41:17 49° NNW 01:44:25 10° NE
STARLINK-1226 2.8 01:38:31 10° WNW 01:41:35 56° SW 01:44:38 10° SE
Cosmos 1758 Rocket 3.5 01:39:23 26° SSW 01:41:49 84° W 01:46:13 10° N
ARIANE 5 R/B 3.5 01:37:27 10° NNE 01:42:16 42° E 01:46:55 11° S
STARLINK-1215 2.9 01:39:28 10° WNW 01:42:31 54° SW 01:45:35 10° SE
STARLINK-1217 2.9 01:41:14 10° WNW 01:44:17 52° SW 01:47:20 10° SE
H-2A R/B 3.9 01:40:31 10° SE 01:44:21 32° ENE 01:48:17 10° N
STARLINK-1208 3.9 01:40:26 10° NW 01:44:34 72° NNE 01:48:43 10° ESE
NPP 4.0 01:39:20 10° N 01:44:36 55° WNW 01:47:57 22° SW
STARLINK-1229 2.9 01:42:09 10° WNW 01:45:12 51° SW 01:48:14 10° SE
STARLINK-1270 2.9 01:43:02 10° WNW 01:46:04 50° SW 01:49:06 10° SE
STARLINK-1189 3.0 01:44:52 10° WNW 01:47:54 48° SW 01:50:55 10° SE
STARLINK-1188 3.0 01:45:45 10° WNW 01:48:47 47° SW 01:51:48 10° SE
STARLINK-1235 3.3 01:46:31 10° WNW 01:49:25 36° SW 01:52:16 10° SSE
STARLINK-1271 3.8 01:45:26 10° WNW 01:49:35 77° NNE 01:53:44 10° ESE
STARLINK-1187 3.2 01:46:54 10° WNW 01:49:50 40° SW 01:52:47 10° SSE
Cosmos 1898 Rocket 3.5 01:44:36 10° NNW 01:49:58 81° WSW 01:55:17 10° SSE
Meteor 1-21 Rocket 4.4 01:46:49 22° SSW 01:50:23 61° WNW 01:56:01 10° N
STARLINK-1191 3.1 01:48:15 10° WNW 01:51:14 45° SW 01:54:12 10° SE
Lacrosse 4 Rocket 3.0 01:47:37 10° NNW 01:51:43 38° NE 01:55:41 10° ESE
STARLINK-1221 3.1 01:49:07 10° WNW 01:52:06 44° SW 01:55:04 10° SE
Cosmos 1656 3.7 01:48:20 22° SSW 01:52:09 80° WNW 01:57:50 10° NNE
STARLINK-1222 3.1 01:50:01 10° WNW 01:52:59 43° SW 01:55:57 10° SE
STARLINK-1214 3.1 01:50:56 10° WNW 01:53:53 42° SW 01:56:50 10° SSE
CZ-4C R/B 2.5 01:50:43 19° S 01:54:09 53° ESE 01:59:48 10° NE
STARLINK-1154 3.7 01:50:24 10° WNW 01:54:34 82° NNE 01:58:43 10° ESE
Cosmos 2084 4.2 01:52:18 19° WSW 01:55:13 46° NW 01:59:32 10° NNE
SJ 16-02 1.4 01:51:04 10° NNW 01:55:26 57° WSW 01:59:17 13° S
Cosmos 2285 Rocket 4.2 01:49:05 10° NNW 01:55:30 79° ENE 02:01:50 10° SSE
IDEFIX/ARIANE 42P 4.2 01:50:57 10° NNE 01:55:35 30° E 02:00:11 10° SSE
Cosmos 468 Rocket 3.9 01:52:22 21° SSW 01:55:48 77° WNW 02:00:58 10° NNE
Cosmos 1570 Rocket 4.4 01:53:01 15° S 01:57:24 60° ESE 02:02:38 10° NNE
Cosmos 1953 Rocket 3.6 01:54:38 16° S 01:58:08 81° E 02:02:35 10° N
STARLINK-1197 3.6 01:55:23 10° WNW 01:59:33 88° NNE 02:03:42 10° ESE
Cosmos 1937 Rocket 3.5 01:54:58 10° NNW 02:00:15 90° SSW 02:05:31 10° SSE
Cosmos 2369 4.0 01:55:55 16° S 02:00:26 65° ESE 02:06:03 10° NNE
NOSS 7 (H) 4.2 01:59:32 25° SSW 02:01:15 73° SE 02:04:12 10° NE
Meteor 2-10 Rocket 3.9 01:57:09 10° NNW 02:02:13 45° W 02:06:01 16° SSW
STARLINK-1198 3.5 02:00:20 10° WNW 02:04:30 87° SSW 02:08:39 10° SE
Cosmos 1709 Rocket 4.4 02:01:47 18° SW 02:06:07 47° WNW 02:12:02 10° N
STARLINK-1199 3.5 02:05:21 10° WNW 02:09:31 81° SSW 02:13:39 10° SE
USA 129 4.5 02:13:18 10° ENE 02:13:40 10° E 02:14:00 10° E
STARLINK-1210 3.5 02:10:19 10° WNW 02:14:28 75° SW 02:18:35 10° SE
Cosmos 1814 Rocket 4.4 02:11:06 11° S 02:16:14 65° ESE 02:21:32 10° NNE
STARLINK-1320 3.1 02:14:52 18° WSW 02:17:02 65° NNW 02:20:09 10° NE
STARLINK-1322 3.1 02:15:11 18° WSW 02:17:23 65° NNW 02:20:30 10° NE
Cosmos 2219 4.0 02:12:29 10° NW 02:17:24 31° WSW 02:22:14 10° SSW
STARLINK-1324 3.1 02:15:32 17° WSW 02:17:44 64° NNW 02:20:50 10° NE
STARLINK-1294 3.1 02:15:47 17° WSW 02:18:01 64° NNW 02:21:08 10° NE
STARLINK-1261 3.1 02:16:09 17° WSW 02:18:23 64° NNW 02:21:30 10° NE
STARLINK-1325 3.1 02:16:30 17° WSW 02:18:45 63° NNW 02:21:51 10° NE
STARLINK-1333 3.1 02:16:48 17° WSW 02:19:03 63° NNW 02:22:10 10° NE
Cosmos 1980 Rocket 2.8 02:13:56 10° S 02:19:21 53° ESE 02:24:50 10° NE
STARLINK-1334 3.1 02:17:07 17° WSW 02:19:24 62° NNW 02:22:30 10° NE
STARLINK-1219 3.5 02:15:18 10° WNW 02:19:26 69° SW 02:23:33 10° SE
STARLINK-1326 3.2 02:17:28 16° WSW 02:19:45 62° NNW 02:22:51 10° NE
STARLINK-1323 3.2 02:17:47 16° WSW 02:20:05 62° NNW 02:23:11 10° NE
STARLINK-1338 3.3 02:17:39 16° WSW 02:20:18 71° NNW 02:23:46 10° NE
STARLINK-1349 3.2 02:18:06 16° WSW 02:20:25 61° NNW 02:23:31 10° NE
STARLINK-1336 3.2 02:18:28 16° WSW 02:20:47 61° NNW 02:23:53 10° NE
STARLINK-1331 3.2 02:18:45 16° WSW 02:21:06 60° NNW 02:24:11 10° NE
STARLINK-1344 3.2 02:19:05 16° WSW 02:21:26 60° NNW 02:24:32 10° NE
CZ-4B R/B 4.4 02:19:58 10° ESE 02:21:46 15° ENE 02:23:34 10° NNE
STARLINK-1343 3.2 02:19:25 16° WSW 02:21:47 60° NNW 02:24:52 10° NE
Cosmos 1328 4.4 02:19:19 16° SW 02:22:05 40° WNW 02:25:52 10° N
STARLINK-1346 3.2 02:19:43 15° WSW 02:22:08 60° NNW 02:25:16 10° NE
STARLINK-1328 3.2 02:20:05 15° WSW 02:22:28 59° NNW 02:25:34 10° NE
STARLINK-1354 3.2 02:20:22 15° WSW 02:22:47 59° NNW 02:25:52 10° NE
STARLINK-1347 3.2 02:20:44 15° WSW 02:23:09 58° NNW 02:26:14 10° NE
STARLINK-1357 3.3 02:21:02 15° WSW 02:23:28 58° NNW 02:26:33 10° NE
STARLINK-1335 3.3 02:21:22 15° WSW 02:23:48 58° NNW 02:26:54 10° NE
ERS-2 2.0 02:20:19 10° S 02:23:57 71° WSW 02:27:38 10° NNW
STARLINK-1327 3.3 02:21:41 15° WSW 02:24:08 57° NNW 02:27:13 10° NE
STARLINK-1371 3.4 02:21:31 15° WSW 02:24:20 67° NNW 02:27:50 10° NE
STARLINK-1211 3.6 02:20:17 10° WNW 02:24:23 64° SW 02:28:29 10° SE
STARLINK-1340 3.3 02:22:01 15° WSW 02:24:30 57° NNW 02:27:35 10° NE
STARLINK-1356 3.3 02:22:21 14° WSW 02:24:50 57° NNW 02:27:55 10° NE
STARLINK-1345 3.3 02:22:41 14° WSW 02:25:11 56° NNW 02:28:15 10° NE
STARLINK-1355 3.3 02:22:59 14° WSW 02:25:31 56° NNW 02:28:36 10° NE
STARLINK-1321 3.3 02:23:18 14° WSW 02:25:50 56° NNW 02:28:54 10° NE
STARLINK-1358 3.3 02:23:39 14° WSW 02:26:12 55° NNW 02:29:17 10° NE
STARLINK-1341 3.4 02:23:29 14° WSW 02:26:23 65° NNW 02:29:53 10° NE
STARLINK-1332 3.3 02:23:57 14° WSW 02:26:30 55° NNW 02:29:35 10° NE
STARLINK-1348 3.4 02:24:18 14° WSW 02:26:53 55° NNW 02:29:57 10° NE
STARLINK-1330 3.4 02:24:36 14° WSW 02:27:11 54° NNW 02:30:16 10° NE
STARLINK-1363 3.4 02:24:56 13° WSW 02:27:31 54° NNW 02:30:36 10° NE
STARLINK-1337 3.4 02:25:15 13° WSW 02:27:52 54° NNW 02:30:56 10° NE
STARLINK-1342 3.4 02:25:35 13° WSW 02:28:12 53° NNW 02:31:17 10° NE
IRS-1C 4.3 02:23:07 10° N 02:28:22 59° WNW 02:33:25 11° SSW
STARLINK-1374 3.5 02:25:26 13° WSW 02:28:26 63° NNW 02:31:56 10° NE
STARLINK-1364 3.4 02:25:55 13° WSW 02:28:33 53° NNW 02:31:38 10° NE
STARLINK-1376 3.4 02:26:15 13° WSW 02:28:54 53° NNW 02:31:59 10° NE
STARLINK-1360 3.4 02:26:30 13° WSW 02:29:10 53° NNW 02:32:15 10° NE
STARLINK-1245 3.6 02:25:17 10° WNW 02:29:22 59° SW 02:33:26 10° SE
STARLINK-1361 3.4 02:26:56 13° WSW 02:29:37 52° NNW 02:32:41 10° NE
STARLINK-1367 3.4 02:27:10 13° WSW 02:29:53 53° NNW 02:32:59 10° NE
STARLINK-1366 3.4 02:27:33 12° WSW 02:30:15 52° NNW 02:33:19 10° NE
STARLINK-1339 3.5 02:27:27 13° WSW 02:30:31 61° NNW 02:34:00 10° NE
SL-4 R/B 3.6 02:26:54 10° WNW 02:31:27 40° N 02:35:47 10° ENE
STARLINK-1377 3.6 02:29:28 12° WSW 02:32:38 59° NNW 02:36:07 10° NE
Cosmos 2297 Rocket 3.1 02:28:08 10° NW 02:32:55 29° WSW 02:37:41 10° SSW
STARLINK-1233 3.7 02:30:16 10° WNW 02:34:19 54° SW 02:38:22 10° SE
STARLINK-1353 3.6 02:31:17 11° WSW 02:34:29 57° NNW 02:37:56 10° NE
STARLINK-1375 3.6 02:33:04 11° WSW 02:36:21 55° NNW 02:39:48 10° NE
Cosmos 2082 3.8 02:31:22 10° NW 02:36:51 53° WSW 02:42:17 10° S
Cosmos 540 Rocket 3.5 02:32:23 10° SSW 02:37:29 79° WNW 02:42:39 10° NNE
ATLAS CENTAUR R/B 4.1 02:37:45 10° NW 02:38:23 10° NNW 02:39:00 10° NNW
STARLINK-1350 3.7 02:35:22 10° WSW 02:38:45 53° NNW 02:42:11 10° NE
STARLINK-1204 3.8 02:35:17 10° WNW 02:39:18 50° SW 02:43:18 10° SE
Landsat 5 3.7 02:36:20 10° SSE 02:40:49 90° W 02:45:22 10° NNW
STARLINK-1352 3.8 02:37:44 10° WSW 02:41:11 52° NNW 02:44:39 10° NE
OE (NEXTSAT) 4.4 02:38:04 10° W 02:41:33 81° N 02:45:03 10° E
STARLINK-1241 4.5 02:37:30 10° NW 02:41:35 55° NNE 02:45:39 10° ESE
Cosmos 2278 3.7 02:36:19 10° SSW 02:41:58 86° WNW 02:47:41 10° NNE
Cosmos 1455 4.1 02:40:23 10° NW 02:42:18 14° W 02:44:13 10° WSW
CZ-2D R/B 3.5 02:38:41 10° N 02:42:47 72° WNW 02:46:58 10° SSW
STARLINK-1368 3.8 02:39:56 10° WSW 02:43:22 50° NNW 02:46:49 10° NE
Meteor 1-28 Rocket 3.6 02:40:14 10° S 02:43:51 44° W 02:47:29 10° NNW
USA 234 3.8 02:37:35 10° ENE 02:43:57 52° SE 02:50:17 10° SSW
Meteor 1-11 4.5 02:38:29 10° SSW 02:44:01 56° WNW 02:49:32 10° N
STARLINK-1238 3.9 02:40:16 10° WNW 02:44:14 46° SW 02:48:11 10° SSE
SL-16 R/B 4.2 02:41:20 10° WSW 02:44:29 14° W 02:47:39 10° NW
STARLINK-1369 3.9 02:41:54 10° WSW 02:45:17 49° NNW 02:48:43 10° NE
STARLINK-1239 4.3 02:42:28 10° NW 02:46:35 58° NNE 02:50:40 10° ESE
Cosmos 2074 Rocket 4.2 02:41:11 10° SSW 02:47:22 58° WNW 02:53:36 10° N
STARLINK-1372 3.9 02:44:21 10° W 02:47:46 47° NNW 02:51:13 10° NE
ATLAS CENTAUR R/B 3.4 02:44:18 10° WNW 02:47:48 30° SW 02:55:06 10° SSE
IRIDIUM 106 4.4 02:42:44 10° S 02:47:57 90° E 02:53:13 10° N
Cosmos 2263 Rocket 3.3 02:43:27 10° NNW 02:48:56 50° ENE 02:54:20 10° SE
STARLINK-1201 4.0 02:45:17 10° WNW 02:49:12 42° SW 02:53:07 10° SSE
Cosmos 841 Rocket 3.7 02:44:40 10° SW 02:49:50 58° WNW 02:55:02 10° NNE
STARLINK-1378 4.0 02:46:35 10° W 02:50:00 46° NNW 02:53:26 10° NE
Cosmos 2322 Rocket 4.3 02:45:49 10° SSE 02:50:12 24° ESE 02:54:35 10° NE
STARLINK-1329 4.0 02:47:06 10° W 02:50:32 46° NNW 02:53:59 10° NE
Cosmos 372 Rocket 3.9 02:45:26 10° NNW 02:50:33 74° WSW 02:55:41 10° SSE
STARLINK-1365 4.1 02:47:52 10° W 02:51:16 44° NNW 02:54:41 10° NE
STARLINK-1240 4.2 02:47:27 10° NW 02:51:35 62° NNE 02:55:41 10° ESE
STARLINK-1379 4.0 02:48:49 10° W 02:52:14 45° NNW 02:55:39 10° NE
STARLINK-1362 4.1 02:49:25 10° W 02:52:50 45° NNW 02:56:16 10° NE
Cosmos 1892 3.6 02:49:38 10° S 02:53:21 50° E 02:57:04 10° NNE
COBE Rocket 4.4 02:49:17 10° SSW 02:53:55 42° W 02:58:43 10° NNW
STARLINK-1206 4.1 02:50:18 10° WNW 02:54:10 38° SW 02:58:00 10° SSE
Cosmos 1869 3.2 02:50:56 10° N 02:54:51 89° W 02:58:43 10° S
STARLINK-1373 4.1 02:51:44 10° W 02:55:08 44° NNW 02:58:34 10° NE
Cosmos 1400 Rocket 3.6 02:51:37 10° NNW 02:55:22 35° W 02:59:07 10° SSW
Cosmos 2221 2.5 02:51:54 10° NNW 02:56:14 76° W 03:00:34 10° S
STARLINK-1216 4.1 02:52:25 10° NW 02:56:34 66° NNE 03:00:41 10° ESE
STARLINK-1390 4.1 02:53:49 10° W 02:57:12 42° NNW 03:00:36 10° NE
Cosmos 2184 Rocket 4.3 02:53:00 10° SSW 02:58:57 49° WNW 03:04:56 10° N
STARLINK-1205 4.2 02:55:19 10° WNW 02:59:07 35° SW 03:02:53 10° SSE
SL-08 R/B 4.4 02:55:37 10° SSW 02:59:30 25° W 03:03:22 10° NW
CZ-4C R/B 3.5 02:56:23 10° S 02:59:48 44° W 03:03:18 10° NNW
